Regional Weather Roundup
Issued by NWS

Home | Current Version | Previous Version | Text Only | Print | Product List | Glossary Off
Versions: 1 2 3 4 5 6 7 8 9 10 11 12 13 14 15 16 17 18 19 20 21 22 23 24 25 26 27 28 29 30 31 32 33 34 35 36 37 38 39 40 41 42 43 44 45 46 47 48 49 50

000
ASUS43 KMKX 031411
RWRWI

WISCONSIN REGIONAL WEATHER ROUNDUP
NATIONAL WEATHER SERVICE MILWAUKEE/SULLIVAN WI
900 AM CDT SUN MAY 03 2015

NOTE: "FAIR" INDICATES FEW OR NO CLOUDS BELOW 12,000 FEET WITH NO
SIGNIFICANT WEATHER AND/OR OBSTRUCTIONS TO VISIBILITY.

WIZ001-002-006>008-014>016-023>028-031500-
NORTHWEST WISCONSIN

CITY           SKY/WX    TMP DP  RH WIND       PRES   REMARKS
SUPERIOR ARPT  MOSUNNY   67  55  66 W10G16    29.73R
ASHLAND        CLOUDY    67  52  58 SW10      29.75R
HAYWARD        PTSUNNY   63  50  62 S12       29.77S
SIREN          PTSUNNY   62  51  66 SW9       29.78R
CUMBERLAND     PTSUNNY   59  50  72 S16       29.77F
RICE LAKE      PTSUNNY   62  50  63 SE10      29.79F
CHETEK         PTSUNNY   63  52  67 SE10G20   29.79F
LADYSMITH      MOSUNNY   60  51  70 S7        29.83F
EAU CLAIRE     PTSUNNY   64  50  60 S9        29.80F
MENOMONIE      PTSUNNY   64  51  62 S8        29.81S
NEW RICHMOND   CLOUDY    62  50  65 S10       29.78S
OSCEOLA        CLOUDY    60  51  72 S6        29.81R
$$

WIZ003>005-009-010-017-018-031500-
NORTH CENTRAL WISCONSIN

CITY           SKY/WX    TMP DP  RH WIND       PRES   REMARKS
MANITOWISH WTR MOSUNNY   63  51  66 S12       29.79F
ARBOR VITAE    MOSUNNY   63  51  66 SW9       29.81F
WOODRUFF       MOSUNNY   63  51  66 SW9       29.81F
RHINELANDER    MOSUNNY   62  49  62 SW13G21   29.86S
EAGLE RIVER    MOSUNNY   62  47  58 SW10G17   29.83S
LAND O LAKES   MOSUNNY   65  50  58 S8        29.82F
PHILLIPS       PTSUNNY   61  50  67 S9        29.81F
TOMAHAWK       PTSUNNY   61  49  65 CALM      29.85F
MEDFORD        CLOUDY    60  50  69 S8        29.86S
MERRILL        CLOUDY    62  50  66 SW7       29.86S
$$

WIZ029-030-035-036-043>047-031500-
CENTRAL WISCONSIN

CITY           SKY/WX    TMP DP  RH WIND       PRES   REMARKS
WAUSAU         CLOUDY    61  49  64 SW10      29.85R
MOSINEE        CLOUDY    61  52  72 SW9       29.87S
MARSHFIELD     CLOUDY    64  49  57 SW8       29.86S
STEVENS POINT  CLOUDY    62  49  61 SW6       29.87S
WAUPACA        PTSUNNY   67  51  56 S9        29.88S
WAUTOMA        CLOUDY    65  50  58 S8        29.88F
WISC RAPIDS    CLOUDY    65  48  54 SW10      29.87S
CAMP DOUGLAS   CLOUDY    66  50  55 S6        29.85R
$$

WIZ011>013-019>022-031-037>040-048>050-031500-
NORTHEAST WISCONSIN

CITY           SKY/WX    TMP DP  RH WIND       PRES   REMARKS
ANTIGO         CLOUDY    61  49  64 SW14      29.87R
SHAWANO        MOSUNNY   67  50  53 SW8       29.87S
OCONTO         SUNNY     67  50  52 SW10G17   29.86S
STURGEON BAY   SUNNY     68  48  49 SW14      29.90S
GREEN BAY      PTSUNNY   67  50  54 S13       29.89S
MANITOWOC      PTSUNNY   67  52  58 S8        29.91F
APPLETON       PTSUNNY   64  46  52 SW15      29.89S
CLINTONVILLE   PTSUNNY   64  48  55 SW12      29.87S
OSHKOSH        PTSUNNY   66  48  52 S18       29.89S
$$

WIZ032>034-041-042-053>061-031500-
SOUTHWEST WISCONSIN

CITY           SKY/WX    TMP DP  RH WIND       PRES   REMARKS
LA CROSSE      CLOUDY    66  51  58 S10       29.83R
SPARTA         CLOUDY    65  48  52 SW8       29.86R
VIROQUA        CLOUDY    63  49  61 S13       29.86R
BOSCOBEL       CLOUDY    66  50  56 S8        29.86R
PRAIRIE DU CHI CLOUDY    64  48  56 SE6       29.84F
PLATTEVILLE    CLOUDY    63  51  64 S14       29.88S
$$

WIZ056-057-062-063-064-067-068-031500-
SOUTH CENTRAL WISCONSIN

CITY           SKY/WX    TMP DP  RH WIND       PRES   REMARKS
REEDSBURG      PTSUNNY   65  50  58 S12G21    29.87S
BARABOO/DELLS  NOT AVBL
LONE ROCK      CLOUDY    66  51  58 S7        29.88R
MINERAL POINT  NOT AVBL
MADISON        CLOUDY    63  50  62 S13       29.90S
MIDDLETON      CLOUDY    65  46  49 S15G22    29.90R
WATERTOWN      PTSUNNY   64  46  50 S13       29.91F
MONROE         CLOUDY    61  52  72 S10       29.91F
JANESVILLE     CLOUDY    63  45  51 S7        29.93R
$$

WIZ051-052-058>065-066-070>072-031500-
SOUTHEAST WISCONSIN

CITY           SKY/WX    TMP DP  RH WIND       PRES   REMARKS
MILWAUKEE      PTSUNNY   69  44  40 S13       29.94S
WAUKESHA       MOSUNNY   64  43  45 S13       29.95S
MILWAUKEE/TIMM MOSUNNY   66  39  37 S9        29.94F
RACINE         MOSUNNY   64  45  49 S6        29.96F
BURLINGTON     MOSUNNY   69  43  39 SW14      29.94S
KENOSHA        MOSUNNY   70  45  40 S10       29.95S
FOND DU LAC    PTSUNNY   68  46  45 S16G25    29.90S
SHEBOYGAN      SUNNY     68  49  50 S10       29.92S
WEST BEND      MOSUNNY   66  45  45 SW10      29.92S
JUNEAU         PTSUNNY   65  47  50 S16       29.93R
$$

LSZ147-162-031500-
LAKE SUPERIOR

STATION/POSITION TIME  TEMP    WIND        PRES    WAVE
                       AIR SEA DIR/SP/G            HT/PER
                 (UTC) (F)     (DEG/KT/KT) (MB)    (FT/S)
W MID LAKE BUOY  1350   42 35  200/  8/ 10 1007.6R   1/ 3
DEVILS ISLAND    1400   58     230/  4/  5 1006.9F
PORT WING        1340   55      30/  1/  3 1007.5R
SAXON HARBOR     1300   65     200/  9/ 17 1006.4F
$$

LMZ867-665-643>646-031500-
LAKE MICHIGAN

STATION/POSITION TIME  TEMP    WIND        PRES    WAVE
                       AIR SEA DIR/SP/G            HT/PER
                 (UTC) (F)     (DEG/KT/KT) (MB)    (FT/S)
CHAMBERS ISLAND  1300   60     190/  7/ 12 1011.9S
NORTHPORT PIER   1300   50     140/  7/ 11 1011.9S
SISTER BAY       1202   64     230/ 13/ 16   N/A
KEWAUNEE LAKESHO 1300          190/  8/ 10   N/A
SHEBOYGAN LAKESH 1400   57     180/ 17/ 18 1013.5S
PORT WASHINGTON  1340   55     180/  6/  8 1014.2S
ATWATER BUOY     1300   48     160/  8/ 10 1015.2S
MILWAUKEE LAKESH 1300   50     140/  7/  8   N/A
KENOSHA   LAKESH 1400   51     180/ 12/ 15 1014.2S
$$

TC  - TEMPERATURE IN CELSIUS
VSB - VISIBILITY IN STATUTE MILES
WCI - WIND CHILL INDEX
HX  - HEAT INDEX



USA.gov is the U.S. government's official web portal to all federal, state and local government web resources and services.